Location: Riverside
(39.1734°N, 77.8561°W)
Time: 02:07:59
(UTC+00:00)

OTV 5 (USA 277) - Pass Details

Date: 20 October 2019
Orbit: 310 x 324 km, 54.5° (Epoch: 17 October)

Event Time Altitude Azimuth Distance (km) Brightness Sun altitude
Exits shadow 09:37:48 29° 53° (NE) 629 ? -21.7°
Drops below altitude 10° 09:39:56 10° 102° (ESE) 1,229 ? -21.2°
Sets 09:42:01 0° 114° (ESE) 2,055 ? -20.8°
